User: anonymous   Login
Location: Unspecified
(0.0000°N, 0.0000°E)
Time: 01:55:45
(UTC+00:00)
Language:

STARLINK-30945 - Orbit

View from above orbital plane
View from above orbital plane
View from above satellite
View from above satellite

Ground track
Ground track

The orbit is defined by the following mean orbital elements,

1 58874U          26145.47433110 +.00000000 +00000-0 +46088-4 0 00006
2 58874  43.0029 175.4450 0001574 276.3342  83.7330 15.27578157    04
Epoch (UTC): 25 May 2026 11:23:02
Eccentricity: 0.0001574
inclination: 43.0029°
perigee height: 482 km
apogee height: 484 km
right ascension of ascending node: 175.4450°
argument of perigee: 276.3342°
revolutions per day: 15.27578157
mean anomaly at epoch: 83.7330°

The dashed part of the orbit path shows where the satellite is in the earth's shadow,  

DLR